Location: Newark
(42.0700°N, 88.0492°W)
Time: 16:30:46
(UTC+00:00)

ISS - Pass Details

Date: 27 September 2019
Orbit: 411 x 421 km, 51.6° (Epoch: 14 October)

Event Time Altitude Azimuth Distance (km) Brightness Sun altitude
Rises 01:33:16 0° 293° (WNW) 2,343 1.6 -21.1°
Reaches altitude 10° 01:35:58 10° 317° (NW) 1,481 -0.1 -21.5°
Maximum altitude 01:38:05 16° 357° (N) 1,182 -1.3 -21.9°
Enters shadow 01:38:36 15° 8° (N) 1,202 -1.4 -22.0°
